This demonstration page uses our WeatherBlox Daily Observations layout. Learn more.

Left ArrowRight Arrow

39.01783, -85.05884

Hourly Observations for February 21, 2019

Temp ( °F °C ) Dew Point ( °F °C ) Humidity (%) Winds ( mph kmh ) Pressure ( in mb ) Visibility ( mi km ) Precip ( " mm )
12:52 am 00:52 Cloudy 41 5 35 1.7 79 79 WSW 7 11 30.01 1016 10 16 0.00 0.00
1:52 am 01:52 Mostly Cloudy 40 4.4 33 0.6 77 77 W 13 20 30.04 1017 10 16 0.00 0.00
2:22 am 02:22 Mostly Cloudy 38 3.3 32 0 79 79 W 9 15 30.08 1019 10 16 0.00 0.00
2:52 am 02:52 Partly Cloudy 37 2.8 31 -0.6 79 79 W 8 13 30.06 1018 10 16 0.00 0.00
3:52 am 03:52 Mostly Cloudy 36 2.2 31 -0.6 82 82 W 6 9 30.07 1018 10 16 0.00 0.00
4:52 am 04:52 Mostly Cloudy 34 1.1 30 -1.1 85 85 W 5 7 30.09 1019 10 16 0.00 0.00
5:52 am 05:52 Partly Cloudy 35 1.7 30 -1.1 82 82 W 7 11 30.10 1019 10 16 0.00 0.00
6:52 am 06:52 Partly Cloudy 33 0.6 29 -1.7 85 85 W 6 9 30.13 1020 10 16 0.00 0.00
7:52 am 07:52 Mostly Cloudy 32 0 29 -1.7 88 88 WSW 3 6 30.17 1022 7 11 0.00 0.00
8:52 am 08:52 Mostly Cloudy 35 1.7 30 -1.1 82 82 WNW 8 13 30.19 1022 10 16 0.00 0.00
9:52 am 09:52 Mostly Cloudy 38 3.3 31 -0.6 76 76 WNW 8 13 30.21 1023 10 16 0.00 0.00
10:52 am 10:52 Partly Cloudy 41 5 29 -1.7 62 62 W 7 11 30.22 1024 10 16 0.00 0.00
11:52 am 11:52 Partly Cloudy 44 6.7 30 -1.1 58 58 Calm 30.22 1023 10 16 0.00 0.00
12:52 pm 12:52 Mostly Cloudy 45 7.2 27 -2.8 49 49 WNW 6 9 30.21 1023 10 16 0.00 0.00
1:52 pm 13:52 Mostly Cloudy 48 8.9 29 -1.7 48 48 NW 7 11 30.19 1022 10 16 0.00 0.00
2:52 pm 14:52 Cloudy 48 8.9 29 -1.7 48 48 W 8 13 30.20 1023 10 16 0.00 0.00
3:52 pm 15:52 Cloudy 47 8.3 26 -3.3 44 44 NW 9 15 30.21 1023 10 16 0.00 0.00
4:52 pm 16:52 Cloudy 46 7.8 23 -5 40 40 NW 6 9 30.22 1023 10 16 0.00 0.00
5:52 pm 17:52 Cloudy 44 6.7 26 -3.3 49 49 NNW 7 11 30.23 1024 10 16 0.00 0.00
6:52 pm 18:52 Cloudy 42 5.6 27 -2.8 55 55 NW 8 13 30.24 1024 10 16 0.00 0.00
7:52 pm 19:52 Cloudy 41 5 28 -2.2 60 60 NNW 7 11 30.26 1025 10 16 0.00 0.00
8:52 pm 20:52 Cloudy 41 5 28 -2.2 60 60 Calm 30.28 1025 10 16 0.00 0.00
9:52 pm 21:52 Cloudy 40 4.4 29 -1.7 65 65 NNW 8 13 30.29 1026 10 16 0.00 0.00
10:52 pm 22:52 Cloudy 40 4.4 29 -1.7 65 65 NE 6 9 30.28 1025 10 16 0.00 0.00
11:52 pm 23:52 Cloudy 39 3.9 30 -1.1 70 70 N 5 7 30.28 1025 10 16 0.00 0.00

Powered by AerisWeather